HYPSO-2 (60531 NORAD) Tracking and Keplerian Element Data

This shows tracking and keplerian element data for the satellite.

Feedback or suggestion? Click here.




ElementValue
Catalog60531
NameHYPSO-2
Epoch Orbit848
Epoch Day286.78304982
Epoch Year2024
RAAN1.2587
Inclination97.7424
Eccentricity0.0001039
Argument of Perigee131.0587
Mean Anonmoly229.0722
Mean Motion14.92246643
Decay Rate9.55E-05
L11 60531U 24149BR 24286.78304982 .00009550 00000+0 94095-3 0 9996
L22 60531 97.7424 1.2587 0001039 131.0587 229.0722 14.92246643 8486



Live tracking and technical data element details for HYPSO-2 (NORAD 60531). HYPSO-2 can be tracked NOW for your location showing map with azimuth and elevation plus other details from your city location.







IsCatalogInMostPopularTable: catalog: 60531, numindb: 4
Update: records affected: 1



GetName: 60531 HYPSO-2

Hit Count: updated at: Tue, 03 Dec 2024 03:34:50 GMT